LEMUR 2 DEMBITZ

导读

LEMUR 2 DEMBITZ是美国塔尖公司研发的狐猴2系列纳卫星,于2017年7月14日发射升空。作为Lemur-2星座的一员,该卫星重量仅约4千克,属于低成本微小卫星,主要搭载船舶自动识别系统与气象传感载荷,服务于全球船舶监控和大气气象数据采集,依托星座组网实现对地球的持续观测,是美国商业航天小卫星应用的典型实践。

Basic Information
目录编号:
42842
目录名称:
LEMUR 2 DEMBITZ
国际标识:
2017-042T
轨道中心:
EARTH
卫星名称:
LEMUR 2 DEMBITZ
卫星全名:
--
卫星状态:
在轨 (已飞行3339 天)
发射日期:
2017-07-14 UTC
国别 :
美国 (US)
星等 :
--
Orbit Information
数据来源 国际轨道数据
星历时间: 2026-09-03T18:40:54+0800
19小时前
查看轨道信息
半长轴: 6846.462km
偏心率: 0.0007558
轨道倾角: 97.385°
近地点辐角 97.126°
升交点赤经 67.717°
平近点角 263.085°
近地点: 463.15km
远地点: 473.5km
周期: 93.963分钟
每日圈数: 15.325107
Detailed Information
使用方式:
暂无
2D Orbit Map
3D Orbit Map
Orbit Altitude Analysis Chart
Orbit Inclination Analysis Chart
Orbit Comprehensive Analysis Chart
View Comprehensive Chart
Conjunction Data List
Event ID Objects TCA Miss Dist (km) Collision Risk Probability Collision Risk Index (CRI) Action
CDM_260905-083604-284206-877721
2026-09-05T
08:36:51+0000
1.440 km
极远距离
7.569763E-6 低风险 0.53
CDM_260905-053004-284206-471721
2026-09-05T
05:30:11+0000
1.490 km
极远距离
6.83497E-6 低风险 0.52
CDM_260904-211304-284205-632422
2026-09-04T
21:13:45+0000
2.125 km
极远距离
2.498274E-6 低风险 0.43
CDM_260904-224704-284205-632422
2026-09-04T
22:47:44+0000
2.305 km
极远距离
2.084141E-6 低风险 0.41
CDM_260829-000004-284204-835423
2026-08-29T
00:00:11+0000
2.613 km
极远距离
1.587438E-6 低风险 0.39
CDM_260904-031604-284205-339222
2026-09-04T
03:16:32+0000
2.535 km
极远距离
1.097947E-6 低风险 0.36
CDM_260905-043404-284206-383421
HERMES-5 (63834)
2026-09-05T
04:34:33+0000
2.893 km
极远距离
1.051568E-6 低风险 0.35
CDM_260904-005504-284205-339222
2026-09-04T
00:55:30+0000
2.955 km
极远距离
8.857107E-7 极低风险 0.34
CDM_260905-142004-284205-084221
2026-09-05T
14:20:54+0000
2.800 km
极远距离
8.648559E-7 极低风险 0.34